Overview Statistics Trail Chart Weather Telemetry Raw packets
 

This is the latest recevied weather packets stored in our database for station/object W5DNT. If no packets are shown the sender has not sent any weather packets the latest 10 day(s).

<< 19 20 21 22 23 24 25 >>
Time Temp. Humidity Pressure Rain* Wind** Luminosity Snow
1788185713 26.67° C 75% 1015.3 hPa 0 mm - - -
1788184811 26.67° C 77% 1015.3 hPa 0 mm - - -
1788183911 26.11° C 78% 1015.2 hPa 0 mm - - -
1788183025 25.56° C 78% 1015.2 hPa 0 mm - - -
1788182108 25° C 78% 1015.1 hPa 0 mm - - -
1788181208 - - 1014.9 hPa 0 mm - - -
1788180301 - - 1014.6 hPa 0 mm - - -
1788179458 - - 1014.6 hPa 0 mm - - -
1788178554 - - 1014.2 hPa 0 mm - - -
1788177650 - - 1014.2 hPa 0 mm - - -
1788176746 24.44° C 77% 1014.1 hPa 0 mm - - -
1788175848 24.44° C 77% 1013.9 hPa 0 mm - - -
1788174944 24.44° C 78% 1013.8 hPa 0 mm - - -
1788174062 25° C 77% 1013.7 hPa 0.25 mm - - -
1788173158 25° C 77% 1013.7 hPa 0.25 mm - - -
1788172240 25° C 77% 1013.8 hPa 0.25 mm - - -
1788171340 25° C 75% 1013.7 hPa 0.25 mm - - -
1788170443 25.56° C 73% 1013.7 hPa 0 mm - - -
1788169539 26.11° C 73% 1013.5 hPa 0 mm - - -
1788168635 26.11° C 71% 1013.6 hPa 0 mm - - -
1788167730 26.11° C 71% 1013.5 hPa 0 mm - - -
1788166828 26.67° C 70% 1013.5 hPa 0 mm - - -
1788165936 26.67° C 69% 1013.6 hPa 0 mm - - -
1788165038 27.22° C 68% 1013.5 hPa 0 mm - - -
1788164124 27.22° C 67% 1013.6 hPa 0 mm - - -

* Rain latest hour (hover to see other rain measurements)
** Current wind speed in m/s (hover to see current wind gust speed)